Simultaneous Nadir Overpasses (SNOs) Predictions

Prediction of SNOs between NOAA-20 and LANDSAT-8 Satellite Orbit:

Table of predicted SNOs for the next 14.0 days since TLE Epoch: 12/2/2017
Index Date (NOAA-20) Time (NOAA-20) Lat,Lon (NOAA-20) SZA (NOAA-20 ) Date (LANDSAT-8) Time (LANDSAT-8) Lat,Lon (LANDSAT-8) SZA (LANDSAT-8 ) Distance(km) Time Diff (sec)
1 12/03/2017 06:38:48 -70.22,-103.50 87.75 12/03/2017 06:39:59 -70.23,-103.34 87.75 5.78 71
2 12/03/2017 07:29:27 70.08, 64.05 92.11 12/03/2017 07:29:27 70.07, 64.08 92.10 1.68 0
3 12/03/2017 08:20:03 -69.95,-128.40 88.03 12/03/2017 08:18:57 -69.96,-128.45 88.01 2.21 66
4 12/06/2017 03:02:57 70.15, 130.58 92.54 12/06/2017 03:03:40 70.14, 130.61 92.53 1.46 43
5 12/06/2017 03:53:34 -70.06, -61.94 87.55 12/06/2017 03:53:10 -70.03, -61.91 87.58 3.00 24
6 12/06/2017 04:43:58 69.12, 106.74 91.52 12/06/2017 04:42:51 69.15, 104.54 91.56 87.36 67
7 12/08/2017 22:36:37 70.69,-163.65 93.41 12/08/2017 22:37:47 70.58,-162.31 93.28 51.07 70
8 12/08/2017 23:27:05 -70.12, 4.60 87.18 12/08/2017 23:27:24 -70.09, 4.61 87.21 2.86 19
9 12/09/2017 00:17:44 69.99, 172.12 92.70 12/09/2017 00:16:51 69.98, 172.10 92.69 1.21 53
10 12/11/2017 19:00:35 -70.13, 71.20 86.91 12/11/2017 19:01:38 -70.15, 71.13 86.90 3.25 63
11 12/11/2017 19:51:15 70.07,-121.37 93.03 12/11/2017 19:51:04 70.09,-121.31 93.05 3.26 11
12 12/11/2017 20:41:49 -69.80, 46.37 87.25 12/11/2017 20:40:36 -69.88, 46.03 87.16 15.54 73
13 12/14/2017 15:24:45 70.15, -54.86 93.30 12/14/2017 15:25:17 70.14, -54.80 93.28 2.97 32
14 12/14/2017 16:15:22 -70.04, 112.65 86.82 12/14/2017 16:14:47 -70.03, 112.69 86.82 1.35 35




NCC Satellite Simultaneous Nadir Overpasses (SNOs) Prediction Service
